Effective Sunday, March 17, 2024, the National Weather Service National Data Buoy Center will discontinue its Dial-A-Buoy Interactive Voice Response system. For more information, see Service Change Notice 24-06 (PDF).

Station SGOF1 - Tyndall AFB Tower C (N4), FL Image indicating link to RSS feed of recent meteorological observations for station SGOF1


Conditions at SGOF1 as of
(4:00 am CST)
1000 GMT on 02/25/2024:
     

Click on the graph icon in the table below to see a time series plot of the last five days of that observation.

5-day plot - Atmospheric Pressure Atmospheric Pressure (PRES):30.12 in
5-day plot - Pressure Tendency Pressure Tendency (PTDY):+0.02 in ( Rising )
5-day plot - Air Temperature Air Temperature (ATMP): 60.8 °F
Previous observations
TIME
(CST)
5-day plot - Wind Direction
WDIR
 
5-day plot - Wind Speed
WSPD
kts
5-day plot - Wind Gust
GST
kts
5-day plot - Wave Height
WVHT
ft
5-day plot - Dominant Wave Period
DPD
sec
5-day plot - Average Wave Period
APD
sec
5-day plot - Mean Wave Direction
MWD
 
5-day plot - Atmospheric Pressure
PRES
in
5-day plot - Pressure Tendency
PTDY
in
5-day plot - Air Temperature
ATMP
°F
5-day plot - Water Temperature
WTMP
°F
5-day plot - Dew Point
DEWP
°F
5-day plot - Salinity
SAL
psu
5-day plot - Visibility
VIS
nmi
5-day plot - Tide (above MLLW)
TIDE
ft
2024-02-25 03:00 am-------30.11+0.01 61.7-----
2024-02-25 02:00 am-------30.10+0.00 63.0-----
2024-02-25 01:00 am-------30.09-0.01 63.1-----
2024-02-25 12:00 am-------30.09+0.00 63.9-----
2024-02-24 11:00 pm-------30.10+0.03 64.2-----
2024-02-24 10:00 pm-------30.11+0.06 64.2-----
2024-02-24 09:00 pm-------30.09+0.06 64.4-----
2024-02-24 08:00 pm-------30.07+0.05 64.8-----
2024-02-24 07:00 pm-------30.05+0.03 64.6-----
2024-02-24 06:00 pm-------30.03+0.03 64.4-----
2024-02-24 05:00 pm-------30.02+0.01 64.6-----
2024-02-24 04:00 pm-------30.02-0.02 64.2-----
2024-02-24 03:00 pm-------30.01-0.05 63.9-----
2024-02-24 02:00 pm-------30.01-0.06 63.5-----
2024-02-24 01:00 pm-------30.03-0.04 63.0-----
2024-02-24 12:00 pm-------30.05-0.02 61.7-----
2024-02-24 11:00 am-------30.07+0.01 60.6-----
2024-02-24 10:00 am-------30.08+0.05 59.4-----
2024-02-24 09:00 am-------30.07+0.08 58.5-----
2024-02-24 08:00 am-------30.06+0.09 57.6-----
2024-02-24 07:00 am-------30.03+0.09 58.3-----
2024-02-24 06:00 am-------30.00+0.08 59.7-----
2024-02-24 05:00 am-------29.97+0.05 59.9-----
2024-02-24 04:00 am-------29.94+0.02 60.4-----